{"data":{"norad_id":57821,"intl_designator":"2023-138P","name":"STARLINK-30415","alt_names":[],"object_type":"PAYLOAD","status":"ACTIVE","operator":null,"country":"US","launch_date":"2023-09-09","launch_site_code":"AFETR","launch_vehicle":null,"mission":null,"orbit_class":"UNKNOWN","rcs_meters":null,"size_class":null,"mass_kg":null,"dimensions":null,"purposes":["comms"],"wikipedia_slug":null,"has_3d_model":false,"image_url":null,"decayed_at":null,"tle_current":{"epoch":"2026-05-25T01:42:17.913024Z","epoch_age_seconds":62901,"freshness":"FRESH","line1":"1 57821U 23138P   26145.07104066  .00003467  00000+0  13549-3 0  9996","line2":"2 57821  42.9998 163.3498 0001477 270.2407  89.8275 15.27574481150415","mean_motion":15.27574481,"eccentricity":0.0001477,"inclination_deg":42.9998,"raan_deg":163.3498,"arg_perigee_deg":270.2407,"mean_anomaly_deg":89.8275,"bstar":0.00013549,"rev_number":15041,"period_min":94.267089291602,"perigee_km":482.05222233359,"apogee_km":484.07902158812,"semimajor_km":6861.2026219609,"source":"CELESTRAK","updated_at":"2026-05-25T13:38:18.411173Z"}}}